Regional Weather Roundup
Issued by NWS Grand Forks, ND

Home | Current Version | Previous Version | Text Only | Print | Product List | Glossary On
Versions: 1 2 3 4 5 6 7 8 9 10 11 12 13 14 15 16 17 18 19 20 21 22 23 24 25 26 27 28 29 30 31 32 33 34 35 36 37 38 39 40 41 42 43 44 45 46 47 48 49 50
000
ASUS43 KFGF 301831
RWRFGF
PRAIRIE TO PINES  WEATHER ROUNDUP
NATIONAL WEATHER SERVICE EASTERN NORTH DAKOTA/GRAND FORKS ND
100 PM CDT SAT AUG 30 2014

 **SATELLITE DATA USED TO AUGMENT SKY COVER AT AUTOMATED STATIONS**
 *****  WEATHER ACROSS EASTERN NORTH DAKOTA  *****

CITY           SKY/WX    TMP DP  RH WIND       PRES   REMARKS
GRAND FORKS    MOSUNNY   69  50  50 N6        29.90F
6HR MIN TEMP:  48; 6HR MAX TEMP:  70;

GRAND FRKS AFB SUNNY     67  54  63 VRB3      29.91F
GRAND FRKS NWS   N/A     72 N/A N/A S2          N/A
DEVILS LAKE    SUNNY     64  48  55 SE9       29.89F
6HR MIN TEMP:  43; 6HR MAX TEMP:  64;

FARGO          CLOUDY    69  58  67 N5        29.90F
WAHPETON ARPT  CLOUDY    61  55  82 NW5       29.90F
$$

 ***** WEATHER ACROSS CENTRAL AND WESTERN NORTH DAKOTA  *****

CITY           SKY/WX    TMP DP  RH WIND       PRES   REMARKS
BISMARCK       SUNNY     69  53  56 SE14      29.88F
6HR MIN TEMP:  47; 6HR MAX TEMP:  69;

MINOT          SUNNY     69  47  45 SE12      29.85F
6HR MIN TEMP:  46; 6HR MAX TEMP:  69;

JAMESTOWN      SUNNY     67  53  61 E8        29.90F
6HR MIN TEMP:  48; 6HR MAX TEMP:  67;

MINOT AFB      SUNNY     69  51  53 SE14      29.84F
GARRISON         N/A     68  52  56 SE13      29.85F
WILLISTON      PTSUNNY   70  55  59 SE16G24   29.77F
6HR MIN TEMP:  56; 6HR MAX TEMP:  71;

DICKINSON      SUNNY     70  56  61 SE22G30   29.80F
6HR MIN TEMP:  52; 6HR MAX TEMP:  70;

HETTINGER      SUNNY     70  56  61 SE18G28   29.83F
6HR MIN TEMP:  53; 6HR MAX TEMP:  70;

$$

 *****  OTHER AIRPORT OBSERVATIONS IN OUR AREA  *****

CITY           SKY/WX    TMP DP  RH WIND       PRES   REMARKS
WALHALLA       FAIR      64  50  59 E7        29.92F
GRAFTON AIRPOR FAIR      66  46  48 CALM      29.91F
VALLEY CITY AR FAIR      66  55  68 E3        29.91F
CANDO          FAIR      64  46  52 SE10G16   29.91F
CAVALIER APRT  FAIR      64  50  59 CALM      29.91F
GWINNER        MOCLDY    66  57  72 N5        29.91F
SHEYENNE NWR     N/A     66  58  75 NE5       29.95S
ROLLA          FAIR      63  46  55 S14G20    29.91F
 ***** THE ABOVE OBSERVATIONS ARE NON NWS ARE NOT QUALITY
       CONTROLLED AND MAY MIS-REPORT RAIN FOR SNOW...
$$

  *****  WEATHER ACROSS NORTHERN MINNESOTA  *****

CITY           SKY/WX    TMP DP  RH WIND       PRES   REMARKS
FLAG ISLAND    PTSUNNY   63  52  67 NW3       29.92S
WARROAD        SUNNY     64  55  72 NE6       29.93S
ROSEAU         SUNNY     66  54  63 E6        29.92S
HALLOCK        SUNNY     68  48  49 CALM      29.90F
THF RVR FALLS  SUNNY     66  52  59 CALM      29.91F
6HR MIN TEMP:  50; 6HR MAX TEMP:  66;

BAUDETTE       MOSUNNY   67  54  63 VRB6      29.91F
6HR MIN TEMP:  54; 6HR MAX TEMP:  68;

WASKISH        MOSUNNY   64  55  72 NE6       29.90F
CROOKSTON      SUNNY     70  54  56 CALM      29.91F
$$
  *****  WEATHER ACROSS CENTRAL AND WEST MINNESOTA  *****

CITY           SKY/WX    TMP DP  RH WIND       PRES   REMARKS
FOSSTON        SUNNY     68  57  68 CALM      29.91S
BEMIDJI        CLOUDY    63  56  79 NE5       29.90F
PARK RAPIDS    CLOUDY    62  57  83 NE5       29.90F
6HR MIN TEMP:  58; 6HR MAX TEMP:  60; 6HR PCP: TRACE;

ELBOW LAKE     CLOUDY    63  59  88 CALM      29.89S
6HR MIN TEMP:  59; 6HR MAX TEMP:  63;

WADENA         CLOUDY    63  57  82 NE3       29.90S
DETROIT LAKES  CLOUDY    64  57  77 E5        29.91S
MOORHEAD       CLOUDY    64  61  88 N5        29.90F
FERGUS FALLS   CLOUDY    64  61  88 NW5       29.89S
MORRIS MN      SUNNY     66  63  88 NW7       29.89S
STAPLES        CLOUDY    61  59  94 N5        29.90R
$$
  *****  WEATHER ELSEWHERE ACROSS MINNESOTA  *****

CITY           SKY/WX    TMP DP  RH WIND       PRES   REMARKS
DULUTH         CLOUDY    65  60  84 SE9       29.87S
6HR MIN TEMP:  61; 6HR MAX TEMP:  68;

INTRNTL FALLS  MOSUNNY   67  53  61 N9        29.90F
6HR MIN TEMP:  58; 6HR MAX TEMP:  68;

ELY            CLOUDY    61  55  82 N5        29.90S
CLOQUET        CLOUDY    66  61  82 E3        29.87S
WHEATON        CLOUDY    61  55  82 W3        29.91F
BRAINERD       CLOUDY    63  61  93 NE6       29.89S
6HR MIN TEMP:  61; 6HR MAX TEMP:  63; 6HR PCP:  0.01;

HIBBING        CLOUDY    65  58  78 NE6       29.90R
6HR MIN TEMP:  60; 6HR MAX TEMP:  65;

ALEXANDRIA     CLOUDY    65  61  87 NW5       29.90F
6HR MIN TEMP:  62; 6HR MAX TEMP:  66;

SAINT CLOUD    CLOUDY    71  63  75 W5        29.87S
6HR MIN TEMP:  68; 6HR MAX TEMP:  72; 6HR PCP: TRACE;

MINNEAPOLIS    CLOUDY    72  62  71 N7        29.86R
6HR MIN TEMP:  66; 6HR MAX TEMP:  74;

$$

  *****  WEATHER ACROSS SOUTH DAKOTA  *****

CITY           SKY/WX    TMP DP  RH WIND       PRES   REMARKS
SIOUX FALLS    CLOUDY    68  60  75 NW3       29.93F
6HR MIN TEMP:  63; 6HR MAX TEMP:  69;

BROOKINGS      NOT AVBL
WATERTOWN      CLOUDY    63  57  81 NW6       29.92F
6HR MIN TEMP:  59; 6HR MAX TEMP:  63;

HURON          PTSUNNY   67  57  70 S3        29.92F
6HR MIN TEMP:  59; 6HR MAX TEMP:  68;

SISSETON         N/A     66  58  75 NE6       29.89F
ABERDEEN       PTSUNNY   67  57  70 VRB5      29.90F
6HR MIN TEMP:  56; 6HR MAX TEMP:  68;

MITCHELL       CLOUDY    64  58  80 SW5       29.94F
PIERRE         SUNNY     71  57  61 E12       29.88F
6HR MIN TEMP:  50; 6HR MAX TEMP:  72;

MOBRIDGE       SUNNY     68  58  70 SE10      29.87F
RAPID CITY     SUNNY     76  57  51 S17       29.83F
6HR MIN TEMP:  50; 6HR MAX TEMP:  77;

$$

  *****  SOME WEATHER IN NEARBY STATES *****

CITY           SKY/WX    TMP DP  RH WIND       PRES   REMARKS
GLASGOW MT     LGT RAIN  62  59  90 CALM      29.74F
6HR MIN TEMP:  56; 6HR MAX TEMP:  62; 6HR PCP:  0.10;

GREAT FALLS MT PTSUNNY   72  42  34 W17G26    29.80F
6HR MIN TEMP:  61; 6HR MAX TEMP:  72;

CHEYENNE WY    SUNNY     78  43  28 S15G23    30.06F
6HR MIN TEMP:  48; 6HR MAX TEMP:  79;

SCOTTSBLUFF NE SUNNY     83  55  38 E10       29.91F
6HR MIN TEMP:  55; 6HR MAX TEMP:  83;

OMAHA NE       MOSUNNY   74  65  73 NW6       29.94F
6HR MIN TEMP:  64; 6HR MAX TEMP:  75;

DES MOINES IA  MOSUNNY   80  68  66 NW7       29.90S
6HR MIN TEMP:  67; 6HR MAX TEMP:  80;

DAVENPORT IA   CLOUDY    78  68  71 W10       29.89S
6HR MIN TEMP:  69; 6HR MAX TEMP:  78;

CHICAGO IL     PTSUNNY   79  66  64 SW14G26   29.85S
6HR MIN TEMP:  71; 6HR MAX TEMP:  80; 6HR PCP:  0.26;

EAU CLAIRE WI  CLOUDY    69  65  86 NW9       29.82R
6HR MIN TEMP:  66; 6HR MAX TEMP:  74; 6HR PCP:  0.03;

LA CROSSE WI   PTSUNNY   77  66  68 NW9       29.81R
6HR MIN TEMP:  69; 6HR MAX TEMP:  79; 6HR PCP:  0.01;

$$

  *****  SOME NATIONAL WEATHER *****

CITY           SKY/WX    TMP DP  RH WIND       PRES   REMARKS
LA GUARDIA NY  PTSUNNY   76  59  55 S10G20    30.22F
6HR MIN TEMP:  70; 6HR MAX TEMP:  77;

RALEIGH NC     MOSUNNY   86  70  58 SE7       30.20F HX  90
6HR MIN TEMP:  73; 6HR MAX TEMP:  87;

ATLANTA GA     PTSUNNY   88  72  58 SE9       30.14F HX  94
6HR MIN TEMP:  74; 6HR MAX TEMP:  88;

NEW ORLEANS LA TSTM      75  72  90 S5        30.05F
6HR MIN TEMP:  74; 6HR MAX TEMP:  87; 6HR PCP:  1.02;

OKLAHOMA CITY  MOSUNNY   92  60  34 NE5       29.96F HX  91
6HR MIN TEMP:  67; 6HR MAX TEMP:  93;

ALBUQUERQUE NM MOSUNNY   80  44  27 SW8       30.17F
6HR MIN TEMP:  61; 6HR MAX TEMP:  81;

SALT LAKE CITY CLOUDY    77  40  26 SE7       29.97R
6HR MIN TEMP:  70; 6HR MAX TEMP:  79;

LOS ANGELES CA MOSUNNY   75  64  68 W9        29.85S
BOISE ID       SUNNY     74  42  31 W9G18     29.93S


USA.gov is the U.S. government's official web portal to all federal, state and local government web resources and services.